Home   Weather   Crailsheim   Past weeks

Flag for Germany Past Weather in Crailsheim, Baden-Württemberg, Germany — Yesterday and Last 2 Weeks

Now
36 °F

Drizzle. Mostly cloudy.


Feels Like: 36 °F
Forecast: 38 / 47 °F
Wind: 2 mph from North

Location: Niederstetten

Current Time: Apr 27, 2017 at 7:27:20 am

Latest Report: Apr 27, 2017 at 6:46 am


Visibility: 4 mi

Pressure: 29.92 "Hg

Humidity: 100%

Dew Point: 36 °F

Location of CrailsheimLocation

Past Weather in Crailsheim — Graph

°F

Crailsheim Temperature Yesterday

Maximum temperature yesterday: 43 °F (at 1:20 pm)
Minimum temperature yesterday: 36 °F (at 4:20 am)
Average temperature yesterday: 39 °F

High & Low Weather Summary for the Past Weeks

 TemperatureHumidityPressure
High59 °F (Apr 12, 3:20 pm)100% (Apr 17, 8:20 am)30.54 "Hg (Apr 17, 8:20 am)
Low27 °F (Apr 20, 5:20 am)29% (Apr 24, 5:20 pm)29.68 "Hg (Apr 25, 5:20 am)
Average43 °F68%30.09 "Hg
* Reported Apr 12 6:20 am — Apr 27 6:20 am, Crailsheim, Weather by CustomWeather, © 2017

Note: Actual official high and low records may vary slightly from our data, if they occured in-between our weather recording intervals... More about our weather records

Advertising

Crailsheim Weather History for the Previous 24 Hours

Scroll right to see more
 ConditionsComfort  
Time TempWeatherWind HumidityBarometerVisibility
6:20 am
Thu, Apr 27
36 °FLight rain. Fog.2 mph93%29.92 "Hg3 mi
5:20 am36 °FRain. Fog.2 mph100%29.89 "Hg2 mi
4:20 am36 °FLight rain. Fog.5 mph100%29.89 "Hg3 mi
3:20 am37 °FLight rain. Fog.5 mph93%29.86 "Hg2 mi
2:20 am37 °FLight rain. Overcast.5 mph93%29.86 "Hg4 mi
1:20 am37 °FDrizzle. Overcast.6 mph93%29.89 "Hg5 mi
12:20 am39 °FLight rain. Overcast.6 mph87%29.89 "HgN/A
11:20 pm
Wed, Apr 26
39 °FMostly cloudy.2 mph87%29.89 "HgN/A
10:20 pm39 °FOvercast.2 mph87%29.89 "HgN/A
9:20 pm39 °FOvercast.5 mph81%29.86 "HgN/A
8:20 pm41 °FPartly sunny.2 mph76%29.86 "HgN/A
7:20 pm41 °FMostly cloudy.5 mph76%29.86 "HgN/A
6:20 pm43 °FLight rain. Mostly cloudy.7 mph71%29.86 "HgN/A
5:20 pm41 °FPartly sunny.7 mph76%29.86 "HgN/A
5:00 pm41 °FBroken clouds.7 mph76%29.86 "HgN/A
4:20 pm41 °FBroken clouds.9 mph81%29.86 "HgN/A
3:20 pm43 °FBroken clouds.5 mph71%29.83 "HgN/A
2:20 pm43 °FBroken clouds.8 mph71%29.83 "HgN/A
1:20 pm43 °FBroken clouds.9 mph71%29.83 "HgN/A
12:20 pm41 °FBroken clouds.7 mph81%29.83 "HgN/A
11:20 am39 °FLight rain. Partly sunny.5 mph93%29.83 "Hg6 mi
11:04 am39 °FLight rain. Partly sunny.3 mph87%29.83 "Hg6 mi
10:20 am37 °FLight rain. Partly sunny.3 mph93%29.80 "Hg5 mi
9:20 am37 °FLight rain. Partly sunny.3 mph93%29.80 "Hg4 mi
8:20 am36 °FLight rain. Low clouds.3 mph100%29.80 "Hg4 mi
7:20 am36 °FLight rain. Low clouds.3 mph93%29.80 "Hg4 mi
Weather by CustomWeather, © 2017

See weather overviewHow to use our weather pages